GFSGBSN_850_dewp_087.txt.gz
Dewpoint
0 1 2 1 1 1 1 1 1 1 1 1 -3 -9 -13 -16 -17 -18 -19 -19 -20 -20 -21 -20 -21 -22 -21 -4 -7 -13 -16 -17 -19 -4 -2 -4 -4 -5 -4 -7 -8 -7 -8 -9 -11 -10 -10
1 1 0 -0 1 1 1 1 1 1 1 1 1 -3 -7 -15 -14 -12 -15 -17 -18 -18 -21 -20 -20 -20 -3 -3 -13 -15 -12 -8 -7 -1 -2 -4 -4 -5 -6 -6 -6 -7 -9 -8 -8 -9 -8
0 2 2 1 0 0 -0 0 0 0 1 1 1 1 -3 -8 -8 -7 -7 -12 -13 -15 -17 -21 -20 -18 -2 -8 -11 -11 -6 -10 -6 -7 -4 -2 -3 -4 -4 -4 -6 -7 -5 -6 -7 -7 -7
0 0 -0 0 1 1 0 -0 -0 0 0 0 0 0 -4 -7 -4 -3 -5 -8 -11 -14 -16 -19 -20 -2 -2 -10 -9 -8 -8 -10 -7 -4 -5 -4 -3 -3 -3 -5 -4 -4 -4 -2 -5 -6 -7
-0 2 0 -1 0 1 1 -0 -1 -0 -0 0 -0 0 -3 -6 -3 -4 -7 -11 -13 -14 -14 -16 -7 1 -5 -7 -7 -10 -9 -11 -13 -11 -10 -10 -8 -4 -4 -3 -2 -3 -1 -2 -4 -6 -7
-1 -0 1 1 -1 -1 0 0 -1 -1 -1 -1 -0 -0 -2 -5 -3 -5 -8 -12 -6 -3 2 2 1 1 -2 -13 -10 -3 1 -10 -12 -8 -10 -11 -15 -9 -9 -6 -1 -2 -2 -4 -4 -5 -6
-3 -3 -3 -2 -2 -2 -2 0 0 -1 -2 -1 -1 -1 -1 -2 -1 -6 -6 0 -2 1 2 -2 -4 -3 -8 -8 -7 -10 1 2 1 -0 -6 -11 -15 -7 -7 -8 -8 -5 -5 -5 -5 -6 -5
-3 -2 -1 -2 -2 -1 -2 -2 -0 -2 -3 -1 -2 -1 -1 -1 -2 -6 -2 -0 -1 1 0 -3 -4 -5 -6 -7 -7 -8 -5 -2 -1 -1 -5 -10 -9 -10 -7 -8 -6 -4 -4 -3 -5 -5 -5
-2 -1 -1 -2 -3 -2 -2 -2 -1 -4 -3 -2 -2 -2 -1 -1 -4 -3 1 -1 -0 2 -0 -5 -5 -5 -5 -5 -6 -8 -9 -2 -3 -2 -6 -4 -6 -9 -7 -6 -2 -4 -2 -2 -3 -4 -5
-2 -0 -1 -4 -4 -2 -2 -1 -1 -2 -4 -4 -3 -3 -2 -2 -3 -0 0 0 1 2 -1 -10 -5 -5 -4 -4 -5 -7 -10 -6 -4 -4 -7 -6 -7 -5 -5 -5 -4 -1 -3 -4 -4 -3 -1
-3 -3 -2 -4 -3 -2 -2 -2 -2 -2 -3 -3 -3 -3 -2 -1 2 1 2 1 2 3 -9 -10 -7 -4 -3 -5 -7 -5 -4 -10 -6 -5 -5 -5 -5 -4 -3 -4 -6 -2 -5 -4 -3 -3 -3
-3 -4 -4 -5 -3 -4 -4 -4 -2 -2 -3 -3 -3 -2 -3 -2 0 0 1 3 2 2 -7 -13 -6 -4 -4 -4 -7 -2 -4 -9 -12 -10 -6 -4 -6 -5 -5 -5 -3 -3 -4 -3 -3 -3 2
-4 -2 -3 -3 -2 -4 -4 -4 -2 -3 -3 -3 -3 -4 -3 0 0 2 1 3 1 -3 -13 -13 -5 -4 -6 -4 -3 -3 -3 -5 -5 -7 -5 -7 -8 -6 -5 -3 -3 -3 -1 2 4 3 3
-2 -3 -3 -5 -2 -2 -3 -4 -2 -2 -3 -4 -4 -4 -2 -2 0 2 2 2 2 -9 -9 -8 -7 -6 -7 -6 -3 -2 -1 -2 -3 -6 -6 -9 -9 -15 -9 -6 -4 -2 -1 2 4 4 3
-6 -4 -4 -4 -6 -4 -2 -1 -1 -3 -4 -4 -3 -3 -3 -1 1 1 2 3 -3 -7 -10 -7 -7 -6 -8 -5 -3 -2 -1 -3 -3 -4 -3 -6 -8 -13 -17 -13 -9 -5 -1 -3 -0 0 3
-3 -3 -5 -5 -4 -4 -4 -4 -4 -3 -4 -3 -2 -2 -3 -2 1 1 2 1 -5 -7 -5 -6 -4 -6 -6 -5 -4 -3 -2 -2 -1 -1 -2 -3 -1 -8 -11 -10 -13 -10 -14 -3 -2 2 3
-6 -6 -4 -4 -5 -5 -3 -4 -6 -4 -3 -4 -1 -1 -5 -1 1 1 2 1 -5 -5 -6 -4 -5 -5 -5 -4 -5 -6 -5 -1 -2 -1 0 -1 -1 -3 -6 -6 -5 -7 -7 -6 -3 -1 0
-6 -6 -6 -3 -2 -3 -3 -4 -6 -3 -3 -5 -1 -1 -4 -1 1 -1 0 -2 -1 -3 -7 -7 -5 -4 -4 -5 -5 -5 -5 -4 -4 -3 -0 1 3 1 -3 -6 -7 -7 -5 -6 -1 -0 -2
-4 -4 -4 -5 -6 -6 -6 -7 -7 -6 -7 -3 -2 -3 -2 0 0 -1 -4 -2 -0 -2 -4 -6 -7 -7 -7 -5 -4 -5 -5 -5 -4 -5 -2 -3 3 3 -0 -3 -5 -3 -3 -4 -3 -2 0
-5 -6 -6 -6 -6 -6 -6 -6 -5 -5 -6 -3 -1 0 -4 -0 -1 0 -2 -4 -3 -1 -0 -6 -5 -7 -6 -4 -5 -2 -4 -5 -4 -5 -5 -4 -4 -1 2 4 1 -0 -3 -3 -2 2 0
-5 -5 -5 -5 -5 -5 -5 -5 -5 -5 -5 -3 -2 -1 -5 1 -1 -3 -4 -2 -1 -3 -1 -4 -2 -3 -5 -4 -3 -2 -2 -3 -4 -5 -4 -4 -1 -4 -5 -6 -5 -2 -1 -1 -1 -1 1
-2 -2 -2 -2 -2 -2 -3 -2 -3 -2 -4 -2 -2 -2 -5 -6 -8 -3 -4 -3 -4 -0 1 -1 -2 -4 -5 -4 -4 0 1 0 0 -3 -2 -1 1 -1 -1 -4 -3 -3 -3 -3 -3 -2 -2
-1 -1 -1 -1 -1 -1 -1 -1 -1 -1 -2 -1 -2 -3 -2 -4 -4 -4 -4 -3 -5 -4 -5 -4 -4 -5 -4 -3 -5 -3 -3 -2 -2 -0 -1 0 1 2 2 -4 0 2 -3 -3 -1 0 -0
-1 -1 -2 -2 -2 -1 -2 -4 -2 -1 -1 -2 -1 -2 -2 -1 -2 -2 -6 -7 -5 -5 -4 -3 -6 -4 -4 -1 -1 -2 -2 -2 -2 -2 -3 1 0 2 3 -0 2 -5 0 1 3 3 3
-2 -3 -3 -3 -3 -2 -4 -5 -4 -3 -1 -1 -1 -1 -0 0 -4 -6 -4 -5 -7 -5 -3 -2 -5 -2 1 1 1 0 0 -0 -1 -2 -2 -2 -0 4 3 1 -2 -5 -3 -0 2 3 3
-4 -5 -5 -5 -4 -4 -4 -4 -3 -3 -3 -1 -1 -1 0 0 -2 -7 -6 -7 -2 -2 -2 -3 -1 1 2 3 4 1 2 -1 -1 -3 -4 -3 -1 2 1 1 2 3 -0 2 2 6 5
-2 -5 -6 -6 -5 -3 -3 -3 -4 -3 -3 -2 -1 -1 -0 0 -3 -5 -4 -3 -2 -3 -2 1 2 2 2 3 3 2 2 -4 -1 -1 3 1 2 3 2 1 1 1 0 2 6 8 4
-0 -0 -1 -2 -3 -5 -3 -2 -3 -3 -3 -2 -1 -2 -1 -0 -3 -2 -5 -5 -4 -2 2 3 3 2 2 4 2 -0 -0 -3 -4 -4 3 2 3 4 2 1 3 -1 1 5 5 5 5
0 0 -0 -0 -1 -2 -2 -2 -0 -1 -2 -1 -1 -2 -2 -1 -0 -1 -1 -1 -3 -5 -1 2 -2 2 0 2 -0 -1 1 -1 -3 0 -3 3 1 3 -1 -1 3 -1 3 2 2 3 2

GFSGBSN_850_dewp_093.txt.gz
Dewpoint
1 1 1 1 2 2 1 -0 0 -0 -0 -0 -0 -1 -1 -2 -4 -14 -18 -19 -18 -19 -17 -15 -14 -15 -18 -5 -12 -19 -20 -10 -12 -12 -14 -5 -4 -6 -4 -3 -3 -3 -4 -5 -6 -7 -7
-0 1 1 1 0 0 2 1 0 0 -0 -1 -1 -0 -0 -1 -3 -7 -13 -19 -20 -17 -13 -13 -11 -12 -8 -2 -26 -12 -9 -8 -12 -8 -2 -1 -2 -2 -4 -3 -3 -3 -3 -4 -5 -6 -7
-0 -1 -1 0 0 1 -1 1 1 1 1 -0 -1 -1 -0 -0 -2 -5 -8 -13 -21 -20 -16 -13 -8 -6 -1 -22 -26 -13 -10 -12 -10 -10 -9 -6 -1 -2 -4 -2 -4 -4 -2 -3 -4 -4 -5
-0 -0 -1 -1 -1 0 1 1 -1 1 1 0 -1 -1 -2 -2 -1 -4 -11 -16 -22 -24 -18 -5 -4 -5 -1 -27 -14 -14 -19 -12 -10 -9 -10 -6 -6 -6 -4 -3 -2 -1 -1 -0 -4 -5 -6
-1 -2 -2 -1 -1 -2 -0 1 0 -1 -1 0 0 -1 -2 -2 -2 -3 -12 -21 -27 -26 -16 -2 0 -6 1 -5 -4 -11 -9 -11 -13 -9 -11 -9 -5 -6 -4 -1 1 -0 2 1 -1 -4 -4
-1 -1 -1 -1 -2 -1 -1 -1 -0 -1 -2 -1 0 -0 -2 -3 -3 -4 -11 -23 -9 -7 -2 2 3 3 -1 -8 -9 -8 -7 -7 -8 -11 -11 -11 -10 -7 -5 -1 3 1 1 -1 -1 -3 -4
-2 -2 -2 -2 -3 -3 -2 -1 -2 -1 -2 -2 -1 -1 -4 -3 -3 -5 -12 -10 -1 -0 2 3 2 -1 -5 -5 -6 -7 -9 -5 -4 -7 -9 -11 -9 -7 -8 -6 -4 -3 -2 -1 -3 -6 -5
-2 -2 -1 -2 -2 -2 -3 0 -1 -2 -2 -2 -1 -2 -4 -3 -4 -6 -7 -2 1 -0 0 -1 -2 -1 1 -4 -1 -5 -7 -7 -0 -7 -10 -9 -8 -10 -11 -11 -9 -8 -5 -5 -6 -6 -5
-3 -1 -1 -1 -0 -1 0 0 -2 -2 -1 -3 -0 -2 -4 -3 -4 -7 -1 1 1 -1 1 -3 -7 -4 -4 -5 -3 -4 -8 -8 -5 1 -1 -4 -3 -8 -10 -11 -12 -13 -8 -5 -3 -3 -2
-4 -2 -3 -2 -1 -1 -2 -1 -2 -2 -2 -2 0 -2 -3 -4 -6 1 3 1 1 -0 2 -3 -6 -8 -7 -7 -6 -7 -9 -8 -8 -7 -2 -0 -2 -3 -5 -9 -10 -10 -13 -10 -5 2 4
-3 -4 -3 -3 -3 -3 -2 -2 -3 -4 -2 -2 -1 -3 -3 -4 -5 -2 1 0 1 0 0 -9 -7 -7 -8 -7 -7 -7 -6 -8 -6 -7 -4 -3 -2 -3 -3 -5 -7 -6 -9 -8 1 3 4
-7 -3 -4 -4 -4 -3 -3 -3 -3 -4 -4 -4 -2 -3 -3 -5 -4 -6 -1 -0 0 2 1 -8 -5 -5 -5 -5 -6 -6 -7 -7 -8 -7 -8 -6 -8 -7 -6 -6 -5 -5 -3 -1 1 3 8
-4 -5 -4 -5 -5 -4 -3 -2 -4 -3 -3 -4 -2 -3 -4 -4 -10 -1 1 0 2 3 -7 -12 -5 -5 -4 -3 -4 -4 -2 -2 -4 -5 -4 -8 -8 -10 -8 -5 -4 -3 -2 3 6 6 6
-4 -5 -5 -4 -3 -4 -3 -4 -5 -5 -3 -2 -2 -2 -3 -5 -10 -7 0 2 3 -3 -5 -6 -3 -5 -4 -5 -4 -5 -2 -2 -4 -7 -7 -5 -4 -9 -10 -7 -2 -2 -1 5 6 8 9
-4 -5 -6 -5 -4 -3 -3 -4 -5 -6 -2 -2 -2 -3 -4 -7 -8 -2 -0 2 1 -4 -6 -5 -3 -2 -5 -5 -6 -3 -5 -2 -5 -7 -4 -2 -3 -5 -11 -11 -4 -1 -0 -2 3 2 6
-5 -5 -5 -4 -3 -4 -5 -4 -5 -4 -4 -1 -2 -2 -4 -6 -2 -1 1 0 -3 -6 -6 -3 -0 -1 1 2 1 -6 -1 -1 -1 0 -3 -1 2 -1 -5 -9 -6 -5 -3 1 2 4 3
-5 -6 -5 -7 -6 -5 -6 -4 -4 -4 -2 -2 -2 -3 -9 -7 -2 -1 0 -2 -5 -6 -6 -4 1 3 2 4 3 1 -1 3 3 1 2 4 4 1 -2 -9 -9 -6 -4 -2 -3 2 4
-6 -5 -6 -7 -7 -6 -6 -6 -4 -4 -2 -3 -2 -2 -4 -4 -0 0 -1 -3 -5 -6 -6 -4 0 0 4 2 2 3 5 4 2 -1 0 -2 3 4 2 -1 -2 -9 -9 -8 -3 -2 -2
-6 -7 -6 -6 -6 -5 -5 -4 -3 -3 -2 -2 -2 -3 -7 -2 -2 -1 -2 -3 -4 -4 -5 -5 -0 1 -1 1 2 2 1 -1 -3 -1 -2 -3 1 4 1 -1 2 3 -5 -7 -6 -5 -3
-6 -5 -5 -6 -6 -6 -7 -6 -5 -4 -2 -3 -2 -3 -4 -2 -0 0 -1 -1 -3 -7 -7 -7 -3 -2 -0 -1 -2 -2 -1 -0 -3 -4 -5 -4 -2 -0 2 1 1 -0 -2 -3 2 2 -1
-4 -4 -4 -4 -4 -4 -4 -6 -7 -6 -4 -3 -3 -3 -3 -1 -1 -1 -2 -2 -2 -2 -4 -6 -1 -2 -0 1 0 -4 -4 -0 -2 -1 -1 -1 -1 -1 -2 -3 -4 -4 -4 -5 -5 3 5
-4 -3 -2 -2 -2 -2 -2 -3 -5 -6 -4 -3 -3 -3 -5 -4 -5 1 0 -2 -3 -4 -2 -3 -2 -3 -1 0 0 0 -1 1 2 -0 0 1 3 3 2 -0 -1 -1 -3 -4 -5 -5 -4
-2 -2 -2 -2 -2 -2 -1 -1 -2 -5 -4 -2 -3 -4 -4 -4 -3 -2 -1 0 -3 -5 -6 -6 -2 -1 0 2 0 -0 -1 -0 1 2 1 1 3 3 4 1 1 2 -1 -3 -4 -5 -5
-2 -2 -2 -2 -2 -2 -1 -1 -1 -2 -4 -4 -2 -3 -2 -3 -4 -5 -6 -5 -4 -5 -3 -5 -1 0 -0 1 0 -2 -2 -1 0 1 -1 1 2 2 5 2 4 -0 -4 -4 2 5 5
-2 -2 -2 -3 -4 -4 -3 -2 -1 -1 -1 -2 -3 -2 -2 -3 -5 -5 -5 -3 -2 -1 -3 -3 -2 -2 0 1 2 -1 -0 -1 -0 -2 -2 -1 1 3 4 4 2 -1 4 5 6 7 5
-2 -2 -2 -2 -1 -3 -4 -4 -3 -1 -1 -1 -2 -3 -2 -1 -3 -5 -4 -5 -2 -1 -1 -2 -1 -0 1 2 1 1 2 2 0 -1 -3 -2 0 2 3 4 3 3 3 3 3 7 4
-2 -2 -1 -1 -0 -1 -3 -5 -4 -2 -1 -1 -1 -1 -1 -1 -3 -5 -4 -3 -3 -3 -1 -2 0 1 1 2 1 1 1 -3 2 4 2 2 2 2 3 4 2 4 4 3 7 6 3
-2 -1 -0 -0 -0 -0 -0 -5 -5 -4 -2 -2 -2 -2 -2 -1 -2 -2 -2 -2 -2 -2 1 1 1 2 2 1 1 -0 0 1 3 2 2 2 5 4 2 4 3 4 3 6 4 1 1
-2 -2 -1 -1 -1 -0 -0 -1 -6 -5 -3 -2 -2 -1 -2 -1 -1 -2 -3 -3 -3 -0 1 1 2 1 0 0 0 0 1 1 4 2 2 4 2 2 2 2 4 4 3 1 1 0 0

GFSGBSN_850_dewp_096.txt.gz
Dewpoint
-1 -0 0 1 1 1 0 0 1 1 0 -0 -0 -1 -1 -0 -1 -2 -5 -14 -19 -21 -21 -18 -13 -10 -13 -10 -22 -20 -6 -16 -10 -10 -11 -12 -4 -6 -6 -5 -4 -2 -2 -3 -3 -4 -6
-0 -0 -0 -1 -1 -0 1 1 -0 1 1 1 0 -0 -1 -0 -1 -2 -3 -11 -21 -22 -21 -16 -13 -8 -1 -2 -23 -18 -23 -24 -9 -6 -7 -3 -3 -4 -5 -3 -3 -3 -3 -3 -3 -3 -4
-0 -0 -0 -0 -0 -0 -1 -0 1 1 -0 1 1 1 -1 -1 -1 -2 -4 -6 -21 -23 -23 -18 -12 -1 3 -19 -24 -24 -19 -9 -9 -5 -8 -9 -5 -2 -2 -2 -3 -3 -3 -3 -3 -4 -4
-0 -1 -1 -1 -2 -2 -1 -2 -1 1 1 -1 -0 0 0 -1 -2 -3 -4 -8 -22 -24 -23 -19 -12 2 2 -24 -27 -26 -20 -14 -11 -8 -9 -9 -9 -9 -4 -4 -2 -1 -1 1 -3 -4 -4
-2 -1 -1 -1 -1 -2 -3 -2 -2 -2 -1 -1 -1 -1 -1 0 -1 -4 -6 -14 -24 -26 -21 -20 -7 1 -0 -10 -7 -10 -9 -15 -17 -12 -10 -11 -10 -7 -5 -1 0 -0 2 1 -0 -4 -3
-2 -2 -2 -3 -2 -3 -3 -3 -3 -2 -2 -2 -1 -2 -1 -1 -3 -5 -7 -22 -12 -1 -5 -4 2 3 -4 -8 -7 -9 -8 -7 -7 -10 -11 -10 -10 -7 -4 -0 1 1 2 0 0 -3 -3
-2 -3 -2 -2 -2 -2 -2 -2 -3 -1 -0 -2 -2 -2 -1 -1 -3 -5 -7 -8 0 0 3 1 1 -1 -8 -5 -3 -6 -5 -7 -7 -10 -9 -10 -9 -6 -5 -3 -2 -1 -1 -0 -3 -4 -5
-4 -3 -3 -4 -3 -2 -1 -1 -0 -0 0 -1 -1 -2 -1 -1 -4 -5 -5 -4 1 2 1 -2 -3 0 -3 -4 1 -6 -4 -5 -3 -4 -8 -9 -7 -10 -9 -8 -7 -6 -5 -3 -5 -7 -6
-1 -1 -4 -8 -4 -4 -4 -3 -2 -2 -1 -1 -2 -2 -0 -1 -5 -7 1 2 1 1 -0 -2 -5 -3 -4 -7 -2 -7 -5 -7 -7 -2 -7 -7 -8 -10 -9 -9 -9 -9 -8 -8 -7 -7 -4
-7 -6 -8 -9 -4 -3 -4 -4 -4 -2 -2 -3 -1 -1 0 -3 -5 -4 0 -0 1 2 -1 -5 -3 -6 -6 -6 -4 -12 -12 -9 -8 -6 -0 -0 -5 -9 -6 -9 -9 -8 -11 -11 -12 -9 -5
-3 -4 -5 -4 -5 -5 -4 -3 -3 -4 -4 -4 -3 -1 -1 -3 -5 -5 -1 -1 0 0 -11 -11 -6 -8 -7 -6 -7 -7 -7 -8 -8 -7 -7 -4 -1 0 0 -1 -8 -8 -9 -9 -11 -1 3
-3 -3 -4 -4 -5 -7 -5 -3 -4 -3 -2 -3 -4 -1 -1 -4 -5 -7 -0 -1 -0 -1 -4 -7 -5 -5 -5 -6 -5 -6 -7 -7 -8 -7 -7 -6 -8 -8 -5 -6 -5 -5 -4 -2 1 3 5
-4 -4 -5 -5 -5 -5 -4 -3 -3 -4 -4 -4 -4 -2 -1 -4 -6 -6 -3 -0 1 2 -5 -4 -3 -4 -3 -3 -4 -5 -2 -4 -5 -3 -4 -6 -6 -8 -9 -7 -7 -4 -2 2 4 6 6
-4 -4 -5 -5 -6 -5 -4 -4 -4 -4 -6 -5 -3 -1 -2 -4 -5 -5 -1 0 2 -2 -3 -4 -3 -3 -2 -3 -2 -3 -1 -1 -3 -7 -6 -4 -3 -8 -9 -7 -5 -3 -1 3 4 6 4
-4 -5 -6 -5 -5 -5 -5 -4 -5 -5 -5 -5 -2 -2 -3 -7 -5 -3 -0 2 1 -2 -5 -3 -3 -0 -0 -1 1 -2 -2 -1 -3 -4 -3 -3 -5 -9 -10 -10 -7 -4 -0 -1 2 3 4
-4 -5 -5 -5 -5 -7 -6 -6 -4 -5 -4 -3 -3 -3 -6 -6 -3 -2 1 -0 -1 -5 -5 -4 -1 2 3 2 1 3 -1 -1 -3 -5 -6 -1 1 -2 -3 -10 -8 -4 -3 1 1 4 5
-5 -5 -6 -6 -6 -6 -5 -5 -5 -4 -4 -3 -3 -2 -5 -4 -3 -3 -2 -2 -4 -7 -6 -2 1 0 -1 2 2 3 4 3 3 2 -1 2 3 1 -1 -7 -6 -5 -4 -0 1 3 4
-6 -5 -6 -6 -6 -7 -6 -5 -5 -4 -4 -2 -2 -5 -6 -2 -1 -1 -3 -2 -5 -5 -5 -5 -1 -1 1 4 3 2 3 3 3 3 2 -0 4 5 2 0 0 -2 -5 -0 4 3 3
-5 -5 -7 -7 -6 -6 -6 -4 -4 -4 -3 -2 -2 -2 -6 -3 -1 -1 -2 -2 -4 -4 -4 -4 -2 -1 1 3 4 3 4 1 2 3 3 -1 1 4 2 3 3 4 2 -2 1 -3 -2
-7 -5 -5 -5 -5 -5 -6 -6 -7 -5 -3 -2 -2 -3 -4 -3 -1 0 -2 -3 -2 -4 -4 -5 -5 -5 -2 0 1 1 2 0 -1 2 1 -3 -1 0 2 0 1 3 4 -2 0 5 3
-5 -4 -4 -4 -3 -4 -4 -5 -6 -7 -4 -2 -3 -5 -3 -1 -2 -1 -2 0 -1 -2 -4 -3 -3 -4 -3 0 0 1 2 2 2 2 0 -0 -0 1 1 -1 -2 -3 1 -1 -2 -0 4
-5 -5 -3 -2 -1 -1 -1 -2 -3 -5 -5 -3 -4 -4 -4 -4 -4 -2 -2 -1 -2 -3 -3 -0 -2 -2 -2 -0 -0 1 2 1 1 1 0 1 3 2 2 -0 -0 1 -1 -2 -2 -3 -3
-4 -4 -3 -2 -2 -2 -2 -1 -1 -3 -4 -3 -3 -4 -3 -4 -3 -3 -1 -2 -1 -2 -2 -3 -3 -3 -0 -1 1 1 1 0 1 1 0 1 2 2 4 2 1 2 -0 -2 -2 5 4
-4 -4 -3 -2 -2 -2 -3 -2 -1 -1 -2 -4 -3 -4 -4 -3 -4 -5 -7 -7 -5 -5 -1 -1 -2 -0 -2 -1 -1 -1 -0 1 1 1 0 0 1 2 4 1 2 -0 1 4 6 5 5
-4 -3 -3 -3 -2 -2 -3 -4 -2 -1 -1 -2 -4 -3 -4 -3 -6 -6 -5 -5 -5 -4 -2 -2 -3 -2 -2 1 2 1 -0 -1 -0 -1 0 -1 1 3 3 3 1 0 4 5 5 6 5
-4 -3 -3 -2 -2 -1 -1 -2 -4 -2 -1 -1 -2 -3 -3 -2 -4 -6 -5 -4 -3 -2 -2 -2 -2 0 -0 1 2 2 1 2 3 1 -2 -0 0 1 3 4 4 5 3 2 3 7 3
-4 -3 -2 -2 -1 -1 -1 -0 -2 -4 -2 -1 -1 -2 -2 -2 -4 -4 -4 -4 -5 -3 -1 -1 -1 1 1 1 2 2 1 -2 -0 4 3 2 2 3 3 4 3 4 4 3 4 5 2
-4 -4 -2 -1 -1 -1 -0 -0 -1 -4 -4 -1 -1 -1 -2 -2 -3 -2 -4 -4 -3 -2 -0 -1 -0 0 1 3 1 0 -0 -0 2 2 5 3 3 3 3 3 3 3 3 4 3 3 1
-4 -3 -3 -2 -2 -1 -1 -0 -0 -4 -5 -1 -1 -2 -2 -2 -2 -3 -3 -2 -2 -1 -1 0 1 1 1 0 -0 -0 0 1 2 4 3 4 2 3 2 2 4 3 1 1 0 -0 0

GFSGBSN_850_dewp_099.txt.gz
Dewpoint
-0 -0 -0 -1 -1 -1 -1 -1 0 1 -0 -0 1 1 1 0 -1 -1 -3 -4 -5 -10 -19 -19 -14 -12 -11 -5 -20 -23 -6 -8 -11 -9 -10 -10 -7 -7 -7 -7 -6 -0 -1 -2 -2 -2 -3
1 -1 0 -0 -1 -0 -1 -1 -2 -1 1 1 0 -0 1 1 0 -1 -1 -3 -8 -10 -15 -18 -17 -11 -1 2 -24 -22 -23 -22 -16 -10 -8 -6 -7 -7 -7 -7 -5 -4 -4 -3 -3 -3 -3
-1 0 -0 -0 -0 -1 -2 -2 -2 -2 -2 -0 -0 -0 -1 -1 -0 -0 -1 -2 -5 -12 -13 -17 -12 -8 0 -12 -22 -21 -17 -12 -16 -10 -5 -2 -3 -0 -2 -2 -3 -4 -2 -3 -3 -3 -4
-1 -2 -2 -2 -1 -1 -2 -3 -3 -5 -2 -2 -2 -1 -1 -1 -2 -1 -1 -3 -6 -13 -16 -18 -11 -3 1 -30 -19 -22 -24 -24 -21 -13 -6 -7 -9 -10 -9 -6 -2 -2 -1 1 -2 -3 -3
-3 -1 -2 -2 -3 -3 -2 -2 -4 -4 -3 -3 -2 -2 -2 -2 -2 -2 -2 -4 -8 -16 -19 -17 -9 -0 -0 -12 -11 -7 -8 -17 -21 -12 -9 -9 -10 -9 -4 -2 -1 -0 1 1 -0 -3 -3
-11 -2 -4 -4 -4 -3 -3 -3 -2 -2 -2 -2 0 -1 -2 -3 -2 -2 -3 -5 -14 1 -1 -2 0 1 -9 -9 -3 -3 -6 -8 -10 -13 -11 -9 -10 -7 -3 -1 1 0 2 1 1 -2 -3
-13 -3 -3 -1 -2 -4 -3 -2 -3 -3 -2 -2 -2 -1 -1 -1 -2 -2 -4 -8 0 1 3 1 2 -1 -5 -3 -6 -4 -4 -5 -6 -10 -9 -9 -8 -6 -5 -2 -3 -1 -0 1 -2 -4 -4
-2 -1 -2 -4 -7 -6 -3 -2 -2 -2 -4 -3 -3 -3 -2 -2 -1 -2 -5 -6 -1 1 1 -0 -1 1 -3 -1 0 -9 -4 -4 -5 -5 -9 -9 -7 -9 -7 -5 -4 -4 -2 -2 -4 -4 -4
-2 -10 -13 -12 -9 -5 -6 -5 -5 -5 -4 -3 -2 -3 -3 -1 -0 -3 -5 -1 0 1 2 -0 -3 -2 -4 -4 -0 -4 -6 -5 -6 -0 -6 -4 -6 -9 -9 -8 -7 -7 -6 -7 -5 -9 -8
-4 -9 -15 -13 -8 -7 -7 -7 -5 -5 -4 -4 -4 -3 -2 -1 -1 -4 -4 0 0 2 2 -3 -3 -5 -5 -5 -2 -10 -11 -8 -8 -6 -5 -2 -7 -8 -8 -9 -9 -8 -10 -10 -9 -9 -8
-3 -7 -9 -7 -6 -4 -6 -6 -5 -5 -4 -3 -3 -4 -3 -2 -1 -4 -5 -0 1 2 -5 -13 -5 -6 -4 -4 -7 -5 -8 -7 -8 -6 -4 -1 -2 -2 -7 -6 -9 -8 -8 -8 -8 -9 -8
-2 -5 -7 -5 -5 -5 -5 -5 -4 -3 -4 -4 -4 -3 -2 -1 -1 -4 -5 -0 1 -0 -1 -6 -5 -4 -4 -5 -6 -7 -7 -8 -10 -8 -7 -6 -8 -7 -2 -4 -3 -5 -6 -4 -4 -4 3
-4 -5 -5 -6 -5 -7 -6 -5 -4 -5 -5 -6 -5 -3 -2 -3 -3 -4 -3 0 1 1 -7 -2 -3 -4 -3 -3 -5 -5 -4 -4 -5 -5 -5 -8 -8 -8 -8 -7 -7 -5 -3 2 4 6 4
-4 -5 -5 -6 -6 -6 -6 -6 -6 -5 -7 -6 -5 -3 -3 -3 -3 -4 -2 -1 -1 -4 -3 -5 -5 -2 1 1 -1 -3 -1 -3 -4 -7 -6 -4 -4 -7 -8 -7 -6 -4 -3 2 3 4 1
-5 -7 -5 -5 -5 -7 -7 -8 -7 -7 -5 -6 -5 -6 -4 -5 -4 -4 -1 -1 1 -1 -5 -3 -2 2 1 -1 0 2 -1 -1 -3 -6 -4 -4 -4 -8 -9 -9 -8 -5 -1 -3 0 2 4
-4 -5 -5 -5 -7 -6 -7 -6 -5 -6 -4 -4 -4 -5 -6 -3 -3 -2 -1 0 -1 -6 -6 -3 1 0 1 -0 2 1 3 4 3 2 -3 -5 -1 -2 -3 -10 -8 -7 -5 -0 1 4 4
-7 -7 -7 -7 -6 -6 -8 -7 -4 -6 -4 -4 -3 -4 -5 -4 -3 -3 -4 -3 -4 -6 -5 -2 -1 0 -1 3 4 2 4 3 2 3 3 -2 1 -2 -1 -5 -7 -4 -2 -1 -1 2 3
-6 -5 -4 -5 -8 -7 -7 -6 -5 -5 -4 -3 -3 -5 -5 -3 -3 -3 -5 -3 -4 -4 -6 -5 -2 -1 3 1 2 2 5 4 1 2 4 1 4 2 -1 2 2 -6 -3 0 2 2 3
-2 -4 -8 -7 -6 -6 -7 -6 -5 -4 -3 -2 -4 -3 -5 -5 -0 -3 -2 -2 -4 -4 -4 -3 -3 -2 0 1 0 3 2 -0 0 0 4 3 4 4 2 3 1 4 3 -1 2 -1 2
-4 -6 -6 -5 -3 -4 -5 -5 -5 -6 -3 -3 -4 -4 -5 -2 -1 -1 -1 -2 -3 -4 -3 -4 -4 -5 -4 0 -0 1 2 1 1 1 1 3 4 4 3 1 1 2 3 2 1 4 3
-5 -7 -6 -5 -4 -3 -3 -3 -5 -5 -5 -4 -3 -5 -4 -2 -1 -1 -1 -2 -2 -3 -4 -2 -2 -4 -3 -1 0 0 1 3 1 1 3 4 4 4 2 -0 -2 -0 0 2 -1 -0 2
-5 -7 -6 -4 -3 -2 -1 -1 -2 -4 -4 -3 -3 -5 -4 -4 -5 -3 -3 -2 -3 -1 -3 -3 -1 -1 -1 2 -1 -0 0 3 2 1 3 3 4 3 2 0 -1 0 -1 -1 -1 -2 -1
-4 -6 -4 -3 -3 -2 -2 -1 -1 -1 -2 -3 -3 -3 -3 -4 -4 -4 -2 -3 -2 -4 -5 -2 -1 -0 0 -2 -2 -3 -1 -0 1 2 1 1 2 2 3 2 0 1 -0 -1 5 5 6
-5 -6 -4 -4 -3 -2 -2 -2 -2 -1 -1 -3 -3 -4 -4 -4 -4 -4 -6 -6 -5 -5 -3 -4 -3 -0 -2 -2 -2 -1 1 2 2 2 1 0 1 2 3 1 1 0 4 3 5 5 5
-5 -6 -3 -5 -4 -3 -3 -2 -2 -2 -1 -1 -3 -3 -4 -5 -5 -6 -5 -5 -5 -5 -3 -3 -4 -3 -0 -0 2 1 -0 -0 -0 0 1 1 1 2 2 3 -1 4 3 4 5 6 3
-5 -6 -4 -4 -3 -3 -2 -2 -1 -2 -2 -1 -2 -3 -4 -3 -4 -6 -6 -5 -3 -3 -3 -2 -5 -1 1 1 0 2 1 1 1 0 -1 0 -1 0 2 3 2 4 4 3 4 7 2
-6 -6 -5 -4 -3 -4 -1 -1 -1 -0 -2 -1 -1 -2 -2 -2 -5 -5 -5 -4 -5 -4 -2 -2 -0 -0 1 1 1 2 1 -2 0 1 3 2 2 2 2 2 2 2 3 3 4 4 2
-7 -6 -4 -4 -3 -1 -1 -1 -1 -0 -1 -2 -1 -1 -2 -3 -3 -3 -4 -5 -5 -3 -2 -3 -3 -1 0 1 1 1 1 -1 1 2 4 3 3 3 3 3 3 2 3 1 2 2 1
-6 -5 -4 -4 -3 -2 -2 -2 -0 -0 -1 -3 -2 -1 -1 -2 -2 -2 -3 -3 -2 -3 -1 0 -1 -0 0 1 -0 0 1 -1 2 3 3 5 3 2 1 2 3 1 1 2 1 0 1

GFSGBSN_850_dewp_102.txt.gz
Dewpoint
-1 -3 -4 -2 -1 -2 -2 -2 -2 -2 -2 -1 -0 0 0 -0 -1 -1 -1 -1 -2 -3 -4 -6 -8 -9 -7 -3 -11 -26 -20 -5 -7 -8 -14 -4 -4 -5 -8 -9 -8 -1 -1 -2 -2 -2 -3
-2 1 -0 -0 -0 -0 -1 -1 -4 -5 -4 -3 -2 -2 -1 -1 -1 -1 -2 -2 -2 -2 -4 -6 -7 -5 1 1 -22 -22 -22 -25 -22 -10 -9 -5 -8 -8 -7 -8 -6 -6 -5 -5 -4 -3 -2
-3 -4 -3 -3 -2 -2 -1 -3 -3 -2 -6 -5 -3 -4 -3 -2 -2 -2 -2 -3 -3 -3 -4 -6 -9 -2 1 -4 -27 -23 -21 -19 -11 -13 -10 -8 -9 -3 -4 -4 -5 -4 -4 -4 -3 -3 -3
-4 -4 -5 -3 -3 -4 -4 -3 -3 -4 -3 -3 -3 -3 -2 -2 -3 -2 -3 -3 -3 -4 -6 -9 -10 -3 0 -18 -24 -29 -28 -25 -22 -13 -15 -7 -2 -4 -7 -7 -4 -1 -2 1 -2 -3 -3
-22 -13 -7 -6 -7 -6 -6 -5 -4 -4 -3 -2 -2 -3 -3 -2 -2 -3 -3 -3 -3 -5 -9 -11 -4 -0 -1 -16 -15 -12 -5 -8 -18 -19 -18 -11 -3 -9 -6 -5 -2 -1 1 1 -0 -3 -3
-24 -18 -12 -11 -12 -12 -12 -6 -3 -2 -4 -4 -5 -5 -4 -4 -3 -3 -2 -2 -5 -1 2 1 0 -1 -10 -19 -4 -2 -3 -3 -7 -14 -11 -7 -9 -7 -4 -1 -0 0 2 1 0 -2 -2
-19 -13 -6 -5 -6 -7 -4 -4 -5 -6 -5 -5 -3 -3 -4 -4 -4 -2 -3 -1 -6 1 2 2 1 -1 -6 -1 -3 -1 -1 -4 -6 -9 -8 -9 -7 -6 -5 -2 -3 -2 -1 0 -2 -3 -3
-12 -11 -9 -7 -3 -2 -1 -3 -6 -6 -6 -7 -7 -6 -6 -5 -4 -2 -2 -0 -4 -0 -0 -1 -3 -2 -1 -1 2 -6 -6 -3 -5 -5 -9 -8 -6 -9 -8 -4 -2 -2 -1 -0 -3 -4 -3
-9 -2 -2 -2 -2 -3 -7 -9 -10 -9 -8 -7 -5 -5 -4 -4 -3 -2 -1 -2 -4 -1 1 -1 -2 -1 -3 -3 0 -4 -7 -4 -4 -4 -6 -5 -6 -9 -8 -5 -4 -4 -2 -4 -3 -8 -10
-2 -2 -2 -2 -3 -8 -10 -9 -9 -6 -6 -6 -6 -5 -5 -3 -3 -2 -3 -2 -2 -0 0 -1 -2 -3 -3 -4 -1 -6 -6 -6 -7 -2 -2 -4 -6 -7 -8 -7 -6 -4 -8 -7 -7 -9 -8
-2 -2 -2 -3 -3 -4 -8 -9 -8 -6 -5 -6 -7 -7 -6 -4 -2 -2 -3 -3 -2 -0 1 -11 -4 -5 -4 -5 -6 -4 -5 -6 -6 -6 -4 -1 -1 -4 -4 -8 -9 -8 -9 -8 -9 -8 -9
-3 -3 -4 -3 -4 -6 -8 -8 -7 -6 -6 -6 -6 -6 -6 -5 -2 -2 -3 -3 -2 2 -1 -3 -5 -4 -3 -4 -5 -6 -7 -8 -9 -9 -8 -6 -8 -5 -4 -6 -9 -7 -6 -6 -5 -5 -0
-6 -5 -4 -4 -6 -8 -8 -7 -8 -8 -8 -7 -8 -7 -6 -4 -1 -1 -2 -2 1 0 -7 -2 -4 -4 -3 -1 -4 -4 -6 -5 -6 -7 -7 -9 -10 -8 -8 -7 -7 -6 -3 1 4 4 2
-6 -7 -7 -5 -5 -5 -8 -9 -9 -9 -9 -7 -6 -6 -7 -7 -3 -3 -3 -0 0 -1 -3 -6 -4 -0 1 -0 0 0 -3 -3 -5 -7 -5 -4 -6 -9 -8 -7 -6 -4 -3 2 4 4 2
-3 -3 -4 -5 -7 -8 -9 -8 -6 -5 -9 -5 -5 -6 -6 -4 -4 -3 -3 -1 0 1 -4 -4 -2 -0 -0 -1 1 1 2 5 3 2 -3 -4 -5 -8 -9 -9 -8 -4 -2 -4 -1 -0 3
-4 -6 -6 -9 -10 -7 -8 -10 -8 -5 -7 -5 -5 -5 -5 -4 -3 -2 -5 -2 -1 -2 -5 -3 -0 -1 1 2 2 2 4 3 3 2 2 -4 -3 -4 -3 -9 -9 -7 -5 -0 1 4 3
-3 -9 -8 -5 -6 -10 -8 -8 -7 -5 -6 -5 -4 -4 -3 -4 -2 -5 -7 -3 -4 -6 -5 -3 -2 -1 1 0 1 3 5 3 1 2 2 2 -0 -2 -5 -4 -5 -5 -4 -3 -2 1 2
-6 -4 -4 -6 -8 -7 -8 -7 -7 -5 -5 -4 -3 -5 -4 -2 -3 -4 -5 -5 -5 -4 -7 -4 -3 -1 1 1 1 2 2 2 0 0 4 3 3 3 -1 -2 1 -5 -2 -3 1 1 3
-4 -4 -5 -7 -8 -6 -6 -7 -6 -5 -5 -3 -3 -4 -4 -3 -4 -2 -6 -2 -3 -3 -3 -3 -3 -3 -1 1 -1 1 2 0 0 2 3 3 4 5 2 2 -0 2 2 0 1 -0 2
-4 -6 -4 -8 -5 -4 -4 -4 -5 -4 -5 -3 -3 -4 -5 -2 -3 -1 -1 -2 -2 -4 -3 -3 -3 -4 -4 -1 -0 -1 1 1 2 2 3 2 3 3 4 3 1 2 2 2 1 2 1
-4 -6 -5 -8 -7 -4 -3 -2 -3 -4 -4 -5 -3 -5 -4 -4 -1 -2 -1 -2 -1 -2 -4 -3 -3 -1 0 0 -1 1 1 1 1 1 3 3 4 3 3 4 3 1 3 1 1 -1 1
-4 -5 -6 -8 -5 -3 -3 -2 -1 -2 -3 -4 -4 -4 -3 -3 -4 -4 -3 -3 -1 -3 -2 -1 -2 -2 -0 1 -1 1 -1 1 3 2 3 3 4 4 3 3 1 1 2 2 2 2 1
-4 -4 -5 -7 -4 -3 -3 -2 -1 -1 -2 -3 -4 -4 -3 -6 -4 -4 -3 -3 -2 -4 -5 -2 -4 -2 -1 -0 -2 -2 -2 -2 -0 1 2 3 3 3 2 2 1 2 -0 1 5 5 5
-4 -4 -5 -7 -4 -3 -3 -2 -1 -1 -1 -2 -3 -4 -4 -5 -4 -4 -6 -5 -5 -5 -4 -5 -4 -2 -3 -1 -1 -1 0 1 1 1 1 3 1 2 3 1 0 4 4 3 5 4 5
-4 -5 -5 -6 -4 -4 -3 -3 -2 -2 -1 -1 -2 -4 -3 -6 -5 -6 -5 -5 -5 -6 -5 -4 -4 -4 -1 1 2 2 -0 -0 0 1 2 2 1 2 3 3 -1 4 4 5 5 6 3
-6 -5 -5 -6 -3 -4 -4 -3 -2 -2 -1 -1 -1 -2 -3 -3 -4 -6 -6 -6 -4 -3 -3 -4 -4 -3 1 1 1 2 1 0 0 1 -0 1 0 1 2 3 2 1 4 3 4 6 3
-5 -5 -5 -6 -5 -4 -4 -3 -3 -1 -1 -1 -2 -1 -2 -2 -5 -5 -4 -4 -5 -4 -2 -3 -1 -2 0 0 2 2 1 -2 -0 1 3 2 2 3 2 3 1 1 3 3 4 3 2
-5 -5 -5 -7 -6 -3 -4 -3 -1 -1 -1 -1 -2 -2 -2 -2 -4 -4 -4 -5 -4 -3 -3 -4 -4 -0 0 1 1 1 1 -0 1 2 1 2 2 3 2 3 2 1 2 1 1 1 2
-6 -5 -6 -8 -5 -5 -4 -3 -2 -2 -1 -0 -1 -2 -1 -2 -2 -3 -3 -4 -5 -5 -4 -4 -2 -0 -1 2 2 1 1 -0 1 2 2 4 3 3 1 1 1 0 1 1 0 0 -0

GFSGBSN_850_dewp_108.txt.gz
Dewpoint
-17 -14 -13 -13 -10 -5 -3 -5 -8 -9 -8 -7 -7 -7 -7 -6 -6 -6 -6 -7 -8 -9 -8 -7 -8 -6 -2 -2 -5 -16 -26 -24 -23 -8 -6 -6 -7 -7 -6 -9 -7 -3 -4 -5 -4 -5 -6
-11 -12 -19 -18 -13 -9 -9 -9 -9 -10 -11 -10 -10 -8 -7 -7 -8 -9 -10 -11 -13 -15 -14 -9 -7 -6 -0 -1 -11 -16 -19 -20 -15 -2 -8 -7 -7 -8 -8 -9 -7 -7 -6 -5 -5 -4 -5
-21 -21 -19 -16 -13 -13 -15 -16 -19 -15 -14 -13 -13 -13 -12 -11 -12 -12 -12 -13 -15 -17 -17 -14 -10 -0 -1 -2 -13 -15 -17 -19 -18 -9 -4 -6 -6 -6 -7 -7 -8 -8 -6 -7 -7 -7 -7
-22 -20 -14 -17 -22 -23 -23 -21 -20 -19 -19 -18 -17 -15 -14 -14 -14 -13 -14 -14 -14 -15 -15 -14 -11 1 -0 -2 -7 -19 -21 -8 -11 -17 -9 -3 -2 -3 -5 -6 -6 -6 -6 -5 -7 -7 -7
-25 -19 -20 -23 -23 -24 -23 -22 -23 -21 -20 -18 -16 -13 -12 -12 -12 -11 -12 -12 -12 -12 -10 -8 -1 1 -3 -4 -5 -13 -7 -8 -9 -8 -9 -11 -8 -5 -5 -3 -4 -4 -3 -3 -4 -5 -5
-24 -23 -23 -22 -23 -23 -22 -22 -22 -19 -17 -16 -13 -11 -10 -11 -11 -11 -9 -10 -8 -4 -1 1 1 1 -1 -6 -4 -1 -0 -3 -3 -6 -7 -9 -11 -9 -5 -5 -2 -4 -2 -3 -2 -4 -3
-20 -22 -22 -23 -23 -22 -23 -20 -20 -17 -16 -12 -10 -9 -9 -10 -11 -9 -5 -4 -5 -5 -3 -5 -8 -2 -5 -6 -3 -2 -1 0 -2 -6 -13 -14 -10 -7 -9 -6 -6 -6 -7 -6 -8 -6 -3
-18 -20 -21 -22 -23 -20 -21 -15 -15 -15 -11 -6 -7 -8 -9 -10 -11 -6 -1 -3 -2 -2 -1 -6 -5 -5 -5 -8 -7 -5 -2 -1 -3 -5 -14 -11 -8 -12 -11 -10 -6 -5 -3 -6 -9 -5 -3
-14 -20 -22 -22 -18 -11 -10 -7 -8 -11 -7 -6 -7 -8 -8 -11 -10 -2 -1 -2 -1 -1 -3 -8 -8 -5 -5 -5 -6 -6 -4 -2 -4 -6 -10 -9 -12 -13 -10 -8 -5 -3 -3 -4 -7 -8 -6
-15 -18 -21 -19 -16 -14 -10 -11 -10 -8 -6 -8 -8 -10 -10 -12 -2 -4 -2 -2 -1 -1 -1 -9 -3 -1 -0 -3 -3 -6 -7 -3 -4 -5 -9 -10 -9 -10 -7 -6 -6 -5 -8 -8 -5 -1 -5
-10 -14 -17 -19 -8 -7 -9 -9 -7 -9 -10 -10 -12 -8 -10 -9 -6 -2 -3 -2 -1 -1 -3 -6 0 2 1 -2 -6 -7 -8 -7 -5 -5 -5 -5 -8 -6 -6 -7 -8 -7 -10 -8 -6 -5 -6
-9 -13 -18 -12 -7 -7 -7 -9 -12 -11 -7 -11 -11 -8 -8 -4 -5 -5 -4 -4 -1 0 -1 -3 -4 -0 3 -2 -4 -4 -5 -8 -10 -7 -5 -6 -4 -8 -8 -7 -8 -8 -6 -7 -7 -7 -5
-7 -14 -13 -9 -6 -6 -6 -11 -10 -7 -8 -10 -8 -8 -7 -6 -2 -5 -7 -1 -0 -2 -6 -5 -6 -0 2 2 -3 -5 -4 -6 -9 -6 -6 -7 -5 -5 -4 -4 -5 -8 -5 0 1 0 -3
-4 -7 -4 -5 -5 -9 -11 -12 -10 -8 -8 -11 -9 -9 -6 -7 -6 -6 -3 -1 -2 -3 -4 -8 -7 -2 3 2 2 -5 -7 -4 -4 -8 -11 -6 -5 -6 -6 -4 -4 -6 -4 -4 0 0 -2
-6 -5 -3 -3 -8 -13 -9 -10 -11 -7 -7 -9 -9 -6 -4 -6 -5 -6 -3 -4 -3 -3 -8 -8 -8 -3 0 -1 3 2 2 3 1 2 -5 -8 -9 -10 -10 -8 -7 -4 -2 -6 -2 -2 -0
-6 -3 -3 -8 -6 -10 -11 -9 -9 -8 -8 -9 -7 -4 -2 -5 -6 -4 -5 -5 -6 -7 -8 -9 -5 -4 2 -0 2 4 3 3 3 1 1 -2 -4 -10 -10 -11 -11 -8 -8 -2 -3 -3 -3
-3 -3 -5 -8 -4 -4 -10 -9 -9 -9 -7 -8 -3 -6 -6 -6 -4 -5 -5 -9 -9 -9 -6 -5 -4 -3 -3 -3 -2 4 4 3 2 2 1 2 -2 -2 -5 -6 -8 -8 -4 -4 -5 -4 -5
-4 -4 -8 -4 -4 -10 -8 -8 -8 -8 -7 -8 -3 -4 -5 -6 -3 -3 -4 -5 -4 -6 -6 -4 -4 -5 -4 -3 -3 -2 -0 1 0 2 5 2 3 -1 -2 -1 -7 -11 -9 -6 -3 -3 -3
-6 -4 -6 -5 -4 -9 -7 -3 -5 -5 -5 -4 -4 -6 -4 -3 -3 -5 -6 -5 -4 -4 -5 -3 -3 -4 -4 -3 -2 -3 -3 -2 -2 1 5 3 3 -1 -1 1 -1 -1 -3 -7 -5 -3 -2
-4 -5 -3 -6 -4 -8 -5 -4 -4 -4 -4 -5 -3 -3 -6 -3 -4 -4 -5 -4 -4 -4 -4 -5 -3 -5 -3 -3 -4 -2 -2 -3 -4 1 3 2 2 3 1 0 -0 1 -0 -2 -2 -0 -3
-4 -6 -4 -4 -6 -9 -6 -3 -2 -2 -3 -5 -3 -3 -5 -4 -5 -7 -6 -5 -4 -4 -6 -5 -5 -6 -4 -1 -2 -3 -3 -3 -4 1 3 3 3 2 0 0 1 0 -0 -1 -2 -1 -0
-4 -5 -4 -4 -6 -7 -6 -3 -2 -2 -2 -3 -3 -3 -4 -7 -6 -5 -7 -7 -5 -5 -7 -6 -3 -5 -6 -2 -1 -1 -2 -2 -2 -1 0 3 3 2 1 -1 1 1 -2 -2 -2 -2 -1
-5 -5 -5 -5 -5 -8 -5 -3 -2 -1 -2 -2 -3 -4 -4 -6 -7 -7 -8 -7 -6 -7 -9 -7 -6 -6 -5 -4 -4 -3 -2 -2 -2 -1 1 3 3 1 0 -1 -1 -0 -1 -2 -2 -0 1
-5 -6 -5 -5 -4 -6 -5 -3 -2 -1 -1 -2 -3 -3 -3 -3 -6 -7 -8 -9 -9 -9 -6 -7 -7 -5 -6 -5 -2 -2 -1 -1 -1 -1 -2 2 2 1 0 -1 1 2 2 0 -2 1 1
-6 -6 -6 -5 -5 -5 -5 -3 -2 -2 -1 -2 -2 -2 -2 -2 -6 -6 -6 -6 -7 -7 -7 -7 -6 -5 -3 -1 0 -2 -2 -1 -2 -1 -1 -1 0 1 1 -1 -4 -3 5 3 2 5 4
-6 -7 -6 -5 -6 -5 -6 -2 -3 -2 -1 -1 -1 -2 -2 -2 -5 -5 -6 -6 -5 -5 -5 -5 -5 -4 -1 -1 1 -0 -1 -1 -2 0 0 -0 0 1 -1 -0 -0 5 4 2 3 5 3
-6 -6 -6 -5 -6 -5 -7 -4 -3 -3 -2 -1 -1 -1 -2 -2 -4 -4 -5 -5 -6 -5 -4 -5 -4 -4 -1 -2 -0 -0 -1 -2 -1 -1 2 2 4 3 1 -0 -4 1 1 2 5 5 2
-4 -5 -6 -8 -6 -5 -7 -5 -4 -3 -3 -2 -1 -1 -2 -2 -3 -3 -4 -4 -5 -4 -3 -5 -4 -1 -1 0 0 -0 1 -1 -1 -1 3 1 2 2 1 1 -0 1 1 4 3 1 1
-4 -5 -7 -8 -5 -5 -6 -6 -4 -3 -4 -1 -1 -1 -1 -2 -1 -3 -2 -2 -3 -4 -4 -4 -3 -3 -3 -1 -2 -1 1 0 -0 -0 1 3 2 3 4 4 1 0 0 0 1 -0 -1

GFSGBSN_850_dewp_111.txt.gz
Dewpoint
-9 -15 -13 -10 -8 -3 -5 -12 -12 -13 -11 -11 -11 -11 -13 -15 -16 -17 -19 -21 -22 -21 -21 -21 -17 -12 -3 -4 -6 -11 -10 -16 -12 -9 -6 -4 -6 -6 -6 -6 -6 -4 -4 -4 -4 -5 -5
-13 -14 -14 -16 -14 -10 -13 -16 -16 -16 -15 -15 -16 -19 -22 -23 -24 -23 -21 -21 -22 -23 -21 -19 -16 -14 -0 -2 -8 -8 -9 -10 -11 -13 -16 -10 -8 -7 -7 -6 -5 -6 -4 -5 -4 -4 -5
-11 -11 -22 -20 -20 -19 -22 -22 -22 -21 -20 -20 -21 -23 -23 -23 -20 -18 -19 -21 -23 -22 -19 -18 -16 -10 -2 -4 -8 -8 -9 -9 -10 -11 -9 -8 -12 -8 -8 -7 -7 -8 -6 -6 -6 -5 -4
-15 -19 -22 -23 -26 -25 -23 -23 -23 -23 -23 -22 -22 -21 -20 -20 -18 -17 -17 -19 -21 -19 -16 -16 -13 -4 -2 -4 -5 -6 -7 -8 -9 -11 -10 -8 -8 -8 -8 -7 -7 -6 -6 -4 -7 -7 -7
-15 -17 -21 -25 -24 -24 -23 -23 -24 -24 -23 -22 -21 -21 -20 -17 -14 -17 -22 -24 -20 -14 -11 -8 -0 0 -2 -7 -6 -5 -6 -7 -10 -11 -11 -10 -9 -5 -7 -5 -3 -4 -2 -3 -4 -7 -7
-20 -17 -21 -22 -22 -23 -23 -24 -24 -25 -23 -21 -21 -18 -16 -15 -18 -21 -21 -14 -9 -6 -2 -6 -2 -1 -6 -7 -9 -7 -5 -3 -6 -10 -9 -9 -11 -10 -9 -6 -1 -2 -2 -3 -4 -6 -6
-16 -15 -19 -20 -21 -21 -23 -25 -25 -24 -23 -21 -15 -16 -18 -18 -19 -18 -12 -5 -7 -9 -5 -7 -10 -9 -8 -8 -7 -8 -10 -4 -1 -9 -9 -10 -11 -10 -10 -8 -6 -4 -3 -3 -4 -6 -3
-15 -16 -16 -18 -18 -23 -25 -27 -28 -26 -22 -21 -18 -16 -16 -18 -19 -9 -2 -4 -4 -2 -1 -5 -7 -8 -4 -1 -2 -6 -8 -6 0 -2 -8 -10 -11 -13 -12 -11 -7 -4 -3 -1 -4 -5 -5
-10 -13 -11 -15 -17 -20 -23 -27 -27 -25 -23 -17 -14 -14 -17 -16 -11 -1 -2 -3 -3 -1 -3 -7 -6 -4 -2 -0 -0 -6 -7 -7 -1 0 -5 -9 -13 -16 -12 -11 -9 -6 -4 -2 -4 -6 -5
-7 -9 -10 -12 -14 -22 -25 -25 -23 -19 -15 -14 -14 -15 -14 -11 -1 -3 -4 -3 -3 -1 -1 -7 -6 -3 -2 -1 1 -5 -9 -6 -1 4 -6 -12 -16 -15 -12 -11 -10 -6 -6 -5 -4 -2 1
-4 -8 -7 -10 -16 -14 -21 -20 -19 -17 -15 -12 -13 -11 -11 -9 -3 -3 -4 -2 -2 -1 -2 -9 -9 -7 -5 -1 -2 -8 -8 -6 -3 1 -1 -8 -11 -11 -10 -11 -9 -7 -6 -4 -4 -3 -3
-5 -4 -6 -13 -7 -15 -17 -17 -19 -14 -11 -13 -8 -9 -9 -2 -1 -2 -2 -1 -0 2 -3 -9 -11 -8 -4 1 -0 -4 -8 -8 -6 -3 1 -8 -11 -9 -9 -12 -9 -8 -7 -6 -6 -4 -2
-3 -5 -11 -5 -11 -11 -16 -18 -15 -12 -10 -11 -9 -9 -8 -2 -3 -2 -1 -2 2 -0 -9 -9 -10 -7 -3 0 3 -5 -8 -8 -5 -4 2 -2 0 -9 -9 -6 -7 -6 -2 1 1 0 0
-3 -8 -6 -11 -8 -11 -15 -14 -14 -10 -9 -10 -10 -9 -3 -2 -1 -1 -2 -1 0 -6 -7 -10 -11 -8 0 1 -1 2 -6 -11 -11 -12 -8 -6 -2 -3 -5 -7 -5 -5 -4 3 4 3 -1
-3 -6 -2 -2 -6 -14 -13 -12 -12 -8 -9 -10 -5 -2 -2 -2 -1 -1 -4 -1 -5 -4 -9 -8 -10 -7 -4 -7 1 3 1 3 -2 -5 -1 -7 -6 -9 -5 -7 -7 -5 -5 -6 -1 -0 2
-4 -5 -3 -5 -10 -14 -13 -11 -10 -9 -9 -10 -2 -4 -3 -6 -1 -2 -4 -6 -11 -11 -9 -8 -7 -7 -4 -6 -1 3 4 2 3 1 0 -1 -6 -11 -10 -7 -8 -7 -8 -3 -3 -1 -2
-5 -3 -3 -6 -6 -4 -12 -11 -10 -9 -9 -8 -2 -5 -3 -8 -1 -4 -1 -8 -9 -9 -8 -6 -6 -4 -6 -5 -4 3 3 2 1 3 2 1 -0 -8 -11 -9 -9 -9 -6 -6 -7 -6 -4
-3 -4 -6 -9 -4 -9 -9 -9 -9 -9 -7 -3 -4 -3 -4 -2 -3 -4 -4 -6 -6 -7 -8 -6 -4 -6 -4 -4 -5 -2 -1 -1 -1 3 4 3 4 -2 -4 -8 -10 -14 -8 -7 -5 -5 -6
-3 -5 -7 -4 -4 -9 -8 -5 -5 -6 -6 -2 -6 -8 -4 -1 -2 -7 -8 -7 -6 -6 -6 -5 -4 -6 -7 -3 -1 -6 -4 -4 -5 2 4 4 2 5 5 -1 -8 -10 -11 -7 -6 -5 -1
-5 -5 -4 -5 -6 -8 -7 -4 -5 -5 -5 -2 -4 -1 -7 -6 -6 -5 -6 -6 -6 -6 -6 -6 -6 -7 -6 -4 -5 -3 -5 -6 -4 -0 2 3 3 5 6 6 -2 -1 -7 -10 -7 -3 -4
-5 -4 -5 -3 -5 -7 -6 -4 -3 -2 -4 -2 -2 -3 -7 -4 -6 -7 -7 -7 -7 -5 -8 -7 -6 -5 -6 -4 -5 -5 -6 -6 -6 -1 -1 2 4 1 1 1 -0 2 1 -3 -4 -3 -2
-5 -4 -5 -4 -4 -7 -8 -4 -3 -2 -3 -1 -6 -2 -6 -7 -8 -7 -7 -8 -7 -6 -7 -7 -6 -6 -6 -5 -5 -4 -4 -4 -3 -3 -1 -0 4 0 -1 -4 -2 -2 -4 -4 -5 -6 -6
-5 -4 -5 -4 -4 -6 -8 -4 -2 -2 -3 -2 -3 -3 -4 -6 -7 -7 -9 -9 -8 -8 -9 -9 -8 -6 -5 -6 -6 -6 -5 -4 -4 -2 -0 1 2 2 -0 -3 -3 -1 -3 -4 -5 -6 -4
-5 -5 -5 -4 -5 -5 -8 -3 -2 -2 -2 -1 -2 -3 -4 -2 -8 -7 -8 -8 -8 -9 -8 -9 -8 -6 -7 -5 -4 -4 -5 -4 -4 -3 -3 1 1 -0 1 -2 1 -1 -1 -3 -5 1 1
-5 -5 -6 -6 -5 -5 -8 -4 -3 -2 -1 -2 -1 -2 -3 -2 -6 -8 -7 -7 -7 -7 -7 -7 -7 -6 -4 -4 -1 -3 -2 -2 -3 -4 -3 -2 2 2 2 -0 -2 -4 4 5 5 6 3
-5 -6 -6 -6 -5 -5 -6 -4 -3 -2 -2 -1 -3 -2 -2 -2 -4 -6 -7 -7 -6 -6 -5 -5 -6 -5 -4 -2 -0 1 -2 -3 -1 1 -3 -3 -2 1 1 0 2 5 0 1 2 7 3
-5 -5 -7 -6 -5 -6 -5 -6 -3 -2 -2 -2 -2 -1 -2 -1 -5 -5 -6 -5 -6 -6 -4 -5 -5 -5 -3 -1 0 -1 -1 -5 -2 2 4 2 2 3 0 -0 1 -0 -0 1 6 5 2
-4 -5 -7 -7 -6 -6 -5 -7 -4 -3 -3 -2 -1 -1 -1 -1 -3 -3 -3 -4 -5 -4 -1 -2 -4 -0 -2 -0 -1 -0 0 -1 -2 -2 1 1 2 4 1 2 3 0 1 3 2 2 1
-3 -4 -5 -6 -7 -6 -6 -6 -6 -4 -3 -2 -2 -1 -1 -2 -1 -1 -1 -2 -2 -3 -2 -4 -3 -3 -4 -1 -1 -2 0 0 -1 1 -1 2 1 2 5 4 1 0 0 -0 0 -1 -1